カタログに戻る

YZ-1 R/B

運用中MEO
NORAD 44795·ROCKET BODY·🇨🇳 China

打ち上げ Nov 23, 2019 から Xichang Satellite Launch Center

Loading…

次のパス (今後24時間)

TLE

最新Source: Space-Track

元期: Sep 11, 2026, 19:49 UTC

1 44795U 19078C   26254.82584000 -.00000056  00000-0  00000-0 0  9992
2 44795  54.1342 305.2010 0074990  53.8253 306.9380  1.78050188 44258

AllMySatでYZ-1 R/Bをリアルタイム追跡

Download on the App Store